CZ-6A DEB, 54619

Orbit data source: Space-Track

CZ-6A DEB, 54619 is space debris in SSO originally from a launch on Fri, 11 Nov 2022 UTC launched from the Taiyaun Space Center, China (TSC). Debris objects in space refer to the collection of defunct objects orbiting the Earth. Examples of debris include non-operational satellites, rocket bodies, and fragments generated from explosions, collisions, or faulty payload assembly.

Loading next visibility...
Identifier
54619, 2022-151NV
Orbit
SSO
Country
Flag of CNCN / PRC
Related business
Manufacturer
SAST
Mission
Spacecraft
Bus & Motor
Unknown
Mass
Unknown
Launch date (UTC)
2022-11-11 (3 years ago)
Launch vehicle
Unknown
Launch site
Taiyaun Space Center, China (TSC)
Object type
Payload
Rocket body
Debris
Shape & HBR
Unknown shape, 0.1 m
Radar Cross Section
Small (<0.1 m²)

Expand to show TLE details & history
Last TLE update: 13 hours ago

TLE from 13 hours ago
0 CZ-6A DEB
1 54619U 22151NV  25354.93593522  .00001889  00000-0  60782-3 0  9995
2 54619  98.8158  47.2254 0071846 201.1309 158.6906 14.39067985161478
Epoch: 2025-12-20T22:27Z
TLE epoch observation values (Epoch: 2025-12-20T22:27:44.803Z)
Latitude
Longitude
-19.46687°
Altitude
812.363 km
Speed
7.422 km/s
True Right ascension
03h 08m 54s
True Declination
0° 00' 00"
Sunlit
Object was in full shadow at epoch
Visualization orbit readout
Latitude
Unknown
Longitude
Unknown
Altitude
Unknown
Speed
Unknown
Apparent Right ascension
Unknown
Apparent Declination
Unknown
Sunlit
N/A
Visualization observer readout
Local Sidereal Time
10:41:30
Azimuth
Unknown
Elevation
Unknown
Doppler factor
Unknown
Orbital elements
Apogee altitude
809.993 km
Perigee altitude
707.442 km
Semi-major axis
7,136.855 km
Eccentricity
0.00718
Inclination
98.8158°
RAAN
47.2254°
Arg. of periapsis
201.1309°
True anomaly
158.9873°
Mean anomaly
158.6906°
Eccentric anomaly
158.8392°
Mean motion
3.59984 °/min
Orbital period
100 mins
BSTAR
0.00060782
Loading maneuver chart data...
Computing Atmospheric mass density...
Loading historical data...
Loading historical data...
Loading historical data...
Loading historical data...
Loading historical data...
Loading historical data...
Loading historical data...

Documentation

Showing up to 5 results
|